Location: Sobotiste
(48.7170°N, 17.4000°E)
Time: 05:07:56
(UTC+02:00)

AO-73 - Pass Details

Date: 15 March 2026
Orbit: 514 x 567 km, 97.8° (Epoch: 12 April)

Event Time Altitude Azimuth Distance (km) Brightness Sun altitude
Rises 03:30:24 0° 16° (NNE) 2,675 ? -25.3°
Reaches altitude 10° 03:32:33 10° 20° (NNE) 1,773 ? -25.0°
Enters shadow 03:36:08 61° 82° (E) 596 ? -24.5°
